STARLINK-1137 (45092 NORAD) Tracking and Keplerian Element Data

This shows tracking and keplerian element data for the satellite.

Feedback or suggestion? Click here.




ElementValue
Catalog45092
NameSTARLINK-1137
Epoch Orbit404
Epoch Day52.91667824
Epoch Year2020
RAAN119.5205
Inclination52.9969
Eccentricity0.0001373
Argument of Perigee40.5102
Mean Anonmoly99.6733
Mean Motion15.73187822
Decay Rate8.612E-05
L11 45092U 20006BA 20052.91667824 .00008612 00000-0 65737-4 0 9999
L22 45092 52.9969 119.5205 0001373 40.5102 99.6733 15.73187822 4040

Live tracking and technical data element details for STARLINK-1137 (NORAD 45092). STARLINK-1137 can be tracked NOW for your location showing map with azimuth and elevation plus other details from your city location.

Track the satellite on the map from your city or location and see movement details for azimuth, elevation, latitude, longitude, range, height, and movement on the map or in text.







IsCatalogInMostPopularTable: catalog: 45092, numindb: 6
Update: records affected: 1



GetName: 45092 STARLINK-1137

Hit Count: updated at: Wed, 26 Feb 2020 16:20:26 GMT